Starlink 30232

operational
NORAD ID: 57303 Int'l Des: 2023-096 Owner: SPXS Country: US Constellation: starlink
LEOCIRCULAR

关于 Starlink 30232

正在加载描述...

实时位置

正在加载3D地球...

即将过境

高度历史

Altitude vs Time

uPlot chart will show altitude changes over time

两行轨道根数

1 57303U 23096P 25306.35409101 .00095018 00000-0 31346-2 0 9999
2 57303 42.9964 172.0581 0026756 231.5169 128.3283 15.30063981128599
Epoch: Nov 2, 2025 • Age: 31 hours

当前状态

高度 463.6 km
速度 7.64 km/s
星下点 -21.00°S, 98.07°E
发射日期 Jul 10, 2023
运行时间 2.3 years
类型 internet

技术详情

分类 Payload
质量 730.00 kg
干质量 700.00 kg
总质量 730.00 kg
长度 0.30 m
直径 4.10 m
跨度 29.00 m
形状 Box + pan
制造商 SPXS
平台类型 Starlink V2M
阶段状态 In Orbit
所有者/国家 SPXS/US

大型星座

Loading constellations...